Imperial, NE

2:23 AM MST on December 09, 2016 (GMT -0700)
Imperial Municipal

Weather History for KIML - October, 2010

Change the Weather History Date:

Monday, October 11, 2010

  Actual Average Record
Temperature  
Mean Temperature 59 °F 53 °F  
Max Temperature 70 °F 67 °F 96 °F (2015)
Min Temperature 48 °F 39 °F 13 °F (1896)
Degree Days  
Heating Degree Days 6 12  
Month to date heating degree days 48 113  
Cooling Degree Days 0 0  
Month to date cooling degree days 0 3  
Year to date cooling degree days 1172 960  
Growing Degree Days 9 (Base 50)    
Moisture  
Dew Point 47 °F    
Average Humidity 68    
Maximum Humidity 93    
Minimum Humidity 42    
Precipitation  
Precipitation 0.03 in 0.05 in 1.77 in (2005)
Sea Level Pressure  
Sea Level Pressure 29.99 in    
Wind  
Wind Speed 9 mph (NNW)    
Max Wind Speed 18 mph    
Max Gust Speed 22 mph    
Visibility 10 miles    
Events Rain    
T = Trace of Precipitation, MM = Missing Value Source: NWS Daily Summary

Daily Weather History Graph

Daily Weather History Graph

Search for Another Location

Airport or City:

Trip Planner

Search our weather history database for the weather conditions in past years. The results will help you decide how hot, cold, wet, or windy it might be!

Date:

Astronomy

Oct. 11, 2010 Rise Set
Actual Time 6:53 AM MDT 6:12 PM MDT
Civil Twilight 6:25 AM MDT 6:39 PM MDT
Nautical Twilight 5:54 AM MDT 7:11 PM MDT
Astronomical Twilight 5:22 AM MDT 7:42 PM MDT
Moon 11:32 AM MDT (10/11) 8:50 PM MDT (10/11)
Length of Visible Light 12h 14m
Length of Day
11h 19m
Waxing Crescent, 20% of the Moon is Illuminated
Oct 11
Waxing Crescent
Oct 14
First Quarter
Oct 22
Full
Oct 30
Last Quarter
Nov 5
New

Hourly Weather History & Observations

Time (MDT) Temp. Dew Point Humidity Pressure Visibility Wind Dir Wind Speed Gust Speed Precip Events Conditions
12:53 AM 52.0 °F 48.0 °F 86% 29.94 in 10.0 mi NW 11.5 mph - N/A   Overcast
1:53 AM 52.0 °F 48.0 °F 86% 29.96 in 10.0 mi NW 11.5 mph - N/A   Overcast
2:53 AM 51.1 °F 48.0 °F 89% 29.95 in 10.0 mi NNW 10.4 mph - N/A   Overcast
3:53 AM 51.1 °F 48.0 °F 89% 29.97 in 10.0 mi NNW 11.5 mph - N/A   Overcast
4:53 AM 51.1 °F 48.0 °F 89% 29.97 in 10.0 mi NNW 11.5 mph - 0.00 in   Overcast
5:53 AM 48.9 °F 46.0 °F 90% 29.99 in 10.0 mi NNW 9.2 mph - 0.01 in   Scattered Clouds
6:53 AM 48.0 °F 45.0 °F 89% 30.01 in 10.0 mi NW 8.1 mph - N/A   Clear
7:53 AM 50.0 °F 46.0 °F 86% 30.01 in 10.0 mi NW 10.4 mph - N/A   Clear
8:53 AM 54.0 °F 48.0 °F 80% 30.02 in 10.0 mi NNW 10.4 mph - N/A   Clear
9:53 AM 60.1 °F 50.0 °F 69% 30.01 in 10.0 mi North 13.8 mph - N/A   Clear
10:53 AM 64.0 °F 51.1 °F 63% 30.00 in 10.0 mi North 10.4 mph - N/A   Clear
11:53 AM 66.9 °F 48.9 °F 52% 29.99 in 10.0 mi North 16.1 mph 21.9 mph N/A   Scattered Clouds
12:53 PM 64.0 °F 48.9 °F 58% 29.99 in 10.0 mi NNW 12.7 mph - 0.00 in Rain Light Rain
1:53 PM 70.0 °F 48.0 °F 46% 29.95 in 10.0 mi ENE 6.9 mph - 0.00 in   Scattered Clouds
2:53 PM 66.9 °F 50.0 °F 54% 29.95 in 10.0 mi ENE 8.1 mph - 0.02 in   Scattered Clouds
3:53 PM 68.0 °F 46.0 °F 45% 29.95 in 10.0 mi East 5.8 mph - N/A   Mostly Cloudy
4:53 PM 68.0 °F 44.1 °F 42% 29.95 in 10.0 mi Calm Calm - N/A   Clear
5:53 PM 64.9 °F 45.0 °F 48% 29.98 in 10.0 mi Calm Calm - N/A   Clear
6:53 PM 57.0 °F 46.9 °F 69% 30.00 in 10.0 mi SW 3.5 mph - N/A   Clear
7:53 PM 54.0 °F 46.0 °F 75% 30.01 in 10.0 mi West 4.6 mph - N/A   Clear
8:53 PM 53.1 °F 45.0 °F 74% 30.02 in 9.0 mi West 6.9 mph - N/A   Clear
9:53 PM 52.0 °F 44.1 °F 74% 30.03 in 9.0 mi WNW 6.9 mph - N/A   Clear
10:53 PM 48.9 °F 41.0 °F 74% 30.03 in 10.0 mi WNW 5.8 mph - N/A   Clear
11:53 PM 50.0 °F 41.0 °F 71% 30.03 in 10.0 mi NW 10.4 mph - N/A   Clear